Weather Roundup
Issued by NWS Springfield, MO

Current Version | Previous Version | Text Only | Print | Product List | Glossary On
Versions: 1 2 3 4 5 6 7 8 9 10 11 12 13 14 15 16 17 18 19 20 21 22 23 24 25 26 27 28 29 30 31 32 33 34 35 36 37 38 39 40 41 42 43 44 45 46 47 48 49 50
000
NZUS99 KSGF 281907
HRRSGF

HOURLY WEATHER
NATIONAL WEATHER SERVICE SPRINGFIELD MO
200 PM CDT THU APR 28 2016

......SGF CWA......

CITY           SKY/WX    TMP DP  RH WIND       PRES   REMARKS
SPRINGFIELD    SUNNY     68  43  40 W8        29.94F
JOPLIN         SUNNY     66  46  48 NW8       29.97S
WEST PLAINS    SUNNY     74  42  31 W8        29.95S
ROLLA          SUNNY     67  49  52 NW13      29.90F
OSAGE BEACH    SUNNY     66  45  45 W9        29.92S
BRANSON        MOSUNNY   70  39  32 CALM      29.96F

......SURROUNDING SGF CWA......

CITY           SKY/WX    TMP DP  RH WIND       PRES   REMARKS
CHANUTE        CLOUDY    63  45  51 N7        29.97S
PARSONS        SUNNY     64  46  52 N6        29.98F
COFFEYVILLE    SUNNY     64  43  46 W5        29.97F
EMPORIA        CLOUDY    59  44  57 NW12      29.97F
GROVE OK       SUNNY     68  48  49 CALM      29.99R
ROGERS AR      SUNNY     71  45  39 W6        29.98R
SILOAM SPRINGS SUNNY     70  45  40 CALM      29.99R
HARRISON AR    SUNNY     72  44  36 VRB5      29.96S
NEAR YELLVILLE SUNNY    N/A N/A N/A W5        29.91F

......KANSAS AND MISSOURI......

CITY           SKY/WX    TMP DP  RH WIND       PRES   REMARKS
KANSAS CTY INT CLOUDY    55  46  71 NW8G18    29.96S
DOWNTOWN KC    CLOUDY    59  47  64 NW14      29.96R
COLUMBIA       MOSUNNY   63  49  60 NW14      29.92S
SEDALIA        MOSUNNY   62  51  67 NW10      29.95R
ST JOSEPH      CLOUDY    53  46  77 W8        29.96R
ST LOUIS       MOSUNNY   71  48  43 W13G23    29.89S
SPIRIT OF STL  MOSUNNY   68  49  50 SW10      29.88F
KIRKSVILLE     CLOUDY    57  46  66 W13G21    29.91S
WICHITA        MOSUNNY   62  42  47 N9        29.98F
TOPEKA         CLOUDY    57  45  64 NW12      29.98R
OLATHE         MOSUNNY   59  47  64 W8        29.95S

......TENNESSEE......

CITY           SKY/WX    TMP DP  RH WIND       PRES   REMARKS
MEMPHIS        MOSUNNY   82  55  39 W9        29.94S
NASHVILLE      MOSUNNY   83  55  38 SW7G21    29.90S

......ARKANSAS.......

CITY           SKY/WX    TMP DP  RH WIND       PRES   REMARKS
FAYETTEVILLE   SUNNY     73  44  35 VRB3      29.97R
FT SMITH       SUNNY     75  41  29 E6        29.93F
LITTLE ROCK    MOSUNNY   81  53  37 CALM      29.94S

......OKLAHOMA.......

CITY           SKY/WX    TMP DP  RH WIND       PRES   REMARKS
TULSA          CLOUDY    72  48  42 VRB3      29.95S
PONCA CITY     CLOUDY    65  44  46 N8        29.97F
MCALESTER      MOSUNNY   77  46  33 E7        29.93S
OKLAHOMA CITY  PTSUNNY   70  47  43 E8        29.94S

......IOWA............

CITY           SKY/WX    TMP DP  RH WIND       PRES   REMARKS
DES MOINES     PTSUNNY   56  46  69 W9        29.87S
QUAD CITIES    CLOUDY    53  49  86 E6        29.87R FOG

......ILLINOIS........

CITY           SKY/WX    TMP DP  RH WIND       PRES   REMARKS
QUINCY         PTSUNNY   60  48  64 W14G21    29.90R
CHICAGO        CLOUDY    48  41  76 E10       29.89F




USA.gov is the U.S. government's official web portal to all federal, state and local government web resources and services.